sat.trackr.live / text

‹ back to catalog

COSMOS 2408

NORAD 28419 · 2004-037A

PAYLOAD ACTIVE UNKNOWN

§ Identity

Operator
Country
CIS
Launch date
2004-09-23
Launch site
PLMSC
Launch vehicle
Mass (kg)
RCS (m²)
0.89

External: N2YO · Heavens-Above · Gunter

§ Orbital elements

Epoch: 2026-09-19T22:37:36.895296Z

Period
115.60 min
Inclination
82.4797°
Eccentricity
0.0017122
Mean motion
12.45682313 rev/d
Perigee alt
1,469.1 km
Apogee alt
1,496.1 km
Semi-major
7,860.7 km
B*
5.4559e-4
RAAN
266.4967°
Arg perigee
62.7697°
Mean anomaly
297.5126°
Rev number
99,970

§ Raw data

COSMOS 24081 28419U 04037A   26262.94278814  .00000088  00000+0  54559-3 0  99952 28419  82.4797 266.4967 0017122  62.7697 297.5126 12.45682313999704

JSON: /api/v1/satellites/28419 · /tle

For live sub-satellite position, see the globe view (requires WebGL).

§ Visibility from observer

Set your observer location to see the next 7 days of passes ≥ 10°. The values pass through the URL so the page stays shareable.

No JS? Fill the form by hand. The geolocation button needs JavaScript.